| time (UTC) | temp F | wind direction | speed MPH | gust MPH | rain 1hr in | rain 24hr in | rain mn in | humidity % | barometer mb |
| 20260510211058 | 67 | 232 | 0.0 | 4.0 | 0.01 | 0.01 | 0.01 | 78 | 1042.3 |
| 20260510210551 | 67 | 224 | 0.0 | 4.0 | 0.01 | 0.01 | 0.01 | 79 | 1042.0 |
| 20260510210047 | 67 | 122 | 1.0 | 5.0 | 0.01 | 0.01 | 0.01 | 79 | 1042.0 |
| 20260510205539 | 68 | 289 | 1.0 | 5.0 | 0.01 | 0.01 | 0.01 | 80 | 1042.0 |
| 20260510205035 | 68 | 296 | 1.0 | 5.0 | 0.01 | 0.01 | 0.01 | 78 | 1041.8 |
| 20260510204527 | 68 | 236 | 0.0 | 2.0 | 0.00 | 0.00 | 0.00 | 82 | 1041.8 |
| 20260510204255 | 68 | 107 | 0.0 | 1.0 | 0.00 | 0.00 | 0.00 | 80 | 1041.8 |
| 20260510203526 | 68 | 175 | 0.0 | 0.0 | 0.00 | 0.00 | 0.00 | 78 | 1042.3 |
| 20260510203023 | 68 | 176 | 0.0 | 5.0 | 0.00 | 0.00 | 0.00 | 80 | 1042.3 |
| 20260510202603 | 68 | 203 | 1.0 | 5.0 | 0.00 | 0.00 | 0.00 | 77 | 1042.3 |
| 20260510201520 | 70 | 266 | 1.0 | 5.0 | 0.00 | 0.00 | 0.00 | 74 | 1041.4 |
| 20260510201242 | 70 | 257 | 0.0 | 2.0 | 0.00 | 0.00 | 0.00 | 77 | 1041.4 |
| 20260510200520 | 71 | 284 | 1.0 | 3.0 | 0.00 | 0.00 | 0.00 | 72 | 1041.3 |
| 20260510200020 | 71 | 123 | 1.0 | 4.0 | 0.00 | 0.00 | 0.00 | 74 | 1041.3 |
| 20260510195521 | 72 | 198 | 1.0 | 4.0 | 0.00 | 0.00 | 0.00 | 72 | 1041.3 |
| 20260510195021 | 72 | 38 | 2.0 | 5.0 | 0.00 | 0.00 | 0.00 | 71 | 1041.3 |
| 20260510194746 | 71 | 232 | 2.0 | 5.0 | 0.00 | 0.00 | 0.00 | 72 | 1041.3 |
| 20260510194003 | 71 | 271 | 1.0 | 4.0 | 0.00 | 0.00 | 0.00 | 74 | 1041.3 |
| 20260510193708 | 71 | 33 | 0.0 | 3.0 | 0.00 | 0.00 | 0.00 | 78 | 1041.7 |
| 20260510193203 | 70 | 237 | 0.0 | 4.0 | 0.00 | 0.00 | 0.00 | 78 | 1041.7 |
| 20260510192429 | 69 | 86 | 0.0 | 4.0 | 0.00 | 0.00 | 0.00 | 77 | 1041.7 |
| 20260510191919 | 69 | 259 | 1.0 | 4.0 | 0.00 | 0.00 | 0.00 | 78 | 1041.7 |
| 20260510191412 | 69 | 223 | 1.0 | 4.0 | 0.00 | 0.00 | 0.00 | 76 | 1041.7 |
| 20260510190908 | 70 | 241 | 1.0 | 6.0 | 0.00 | 0.00 | 0.00 | 75 | 1041.7 |
| 20260510190401 | 70 | 248 | 1.0 | 6.0 | 0.00 | 0.00 | 0.00 | 73 | 1041.8 |
| 20260510185856 | 71 | 207 | 1.0 | 4.0 | 0.00 | 0.00 | 0.00 | 70 | 1041.8 |
| 20260510185344 | 71 | 227 | 1.0 | 5.0 | 0.00 | 0.00 | 0.00 | 69 | 1041.8 |
| 20260510184843 | 72 | 315 | 2.0 | 8.0 | 0.00 | 0.00 | 0.00 | 64 | 1041.6 |
| 20260510184336 | 73 | 237 | 2.0 | 8.0 | 0.00 | 0.00 | 0.00 | 63 | 1041.6 |
| 20260510183831 | 74 | 344 | 1.0 | 3.0 | 0.00 | 0.00 | 0.00 | 63 | 1041.6 |
| 20260510183319 | 75 | 40 | 0.0 | 2.0 | 0.00 | 0.00 | 0.00 | 65 | 1041.3 |
| 20260510182813 | 75 | 275 | 0.0 | 2.0 | 0.00 | 0.00 | 0.00 | 60 | 1041.3 |
| 20260510182312 | 75 | 261 | 0.0 | 2.0 | 0.00 | 0.00 | 0.00 | 61 | 1041.3 |
| 20260510181806 | 75 | 244 | 0.0 | 3.0 | 0.00 | 0.00 | 0.00 | 60 | 1041.3 |
| 20260510181301 | 74 | 264 | 1.0 | 3.0 | 0.00 | 0.00 | 0.00 | 60 | 1041.3 |
| 20260510180754 | 74 | 311 | 2.0 | 7.0 | 0.00 | 0.00 | 0.00 | 60 | 1041.3 |
| 20260510180248 | 74 | 243 | 1.0 | 7.0 | 0.00 | 0.00 | 0.00 | 58 | 1041.3 |
| 20260510175742 | 74 | 233 | 1.0 | 4.0 | 0.00 | 0.00 | 0.00 | 60 | 1041.3 |
| 20260510175232 | 74 | 261 | 1.0 | 4.0 | 0.00 | 0.00 | 0.00 | 58 | 1041.3 |
| 20260510174730 | 75 | 287 | 1.0 | 4.0 | 0.00 | 0.00 | 0.00 | 57 | 1041.3 |
| 20260510174220 | 75 | 255 | 1.0 | 5.0 | 0.00 | 0.00 | 0.00 | 59 | 1041.3 |
| 20260510173718 | 75 | 242 | 1.0 | 5.0 | 0.00 | 0.00 | 0.00 | 58 | 1041.3 |
| 20260510173213 | 76 | 269 | 2.0 | 8.0 | 0.00 | 0.00 | 0.00 | 57 | 1041.3 |
| 20260510172706 | 76 | 238 | 3.0 | 8.0 | 0.00 | 0.00 | 0.00 | 61 | 1041.3 |
| 20260510172202 | 76 | 286 | 4.0 | 11.0 | 0.00 | 0.00 | 0.00 | 57 | 1041.3 |
| 20260510171650 | 76 | 265 | 4.0 | 11.0 | 0.00 | 0.00 | 0.00 | 58 | 1041.3 |
| 20260510171148 | 76 | 265 | 2.0 | 8.0 | 0.00 | 0.00 | 0.00 | 59 | 1041.3 |
| 20260510170642 | 76 | 314 | 2.0 | 8.0 | 0.00 | 0.00 | 0.00 | 57 | 1041.3 |
| 20260510170136 | 76 | 254 | 2.0 | 4.0 | 0.00 | 0.00 | 0.00 | 61 | 1041.4 |
| 20260510165631 | 74 | 231 | 2.0 | 9.0 | 0.00 | 0.00 | 0.00 | 63 | 1041.4 |
| 20260510165119 | 73 | 250 | 3.0 | 9.0 | 0.00 | 0.00 | 0.00 | 63 | 1041.7 |
| 20260510164840 | 73 | 286 | 2.0 | 9.0 | 0.00 | 0.00 | 0.00 | 62 | 1041.7 |
| 20260510164108 | 72 | 256 | 2.0 | 6.0 | 0.00 | 0.00 | 0.00 | 63 | 1041.7 |
| 20260510163606 | 72 | 296 | 2.0 | 6.0 | 0.00 | 0.00 | 0.00 | 62 | 1041.8 |
| 20260510163100 | 72 | 240 | 1.0 | 6.0 | 0.00 | 0.00 | 0.00 | 63 | 1041.8 |
| 20260510162554 | 72 | 277 | 2.0 | 6.0 | 0.00 | 0.00 | 0.00 | 62 | 1041.8 |
| 20260510162048 | 72 | 269 | 3.0 | 7.0 | 0.00 | 0.00 | 0.00 | 62 | 1041.8 |
| 20260510161805 | 72 | 251 | 2.0 | 7.0 | 0.00 | 0.00 | 0.00 | 64 | 1041.8 |
| 20260510161036 | 72 | 188 | 2.0 | 6.0 | 0.00 | 0.00 | 0.00 | 64 | 1041.8 |
| 20260510160526 | 72 | 214 | 1.0 | 4.0 | 0.00 | 0.00 | 0.00 | 64 | 1041.8 |
| 20260510160020 | 72 | 207 | 1.0 | 3.0 | 0.00 | 0.00 | 0.00 | 64 | 1041.8 |
| 20260510155518 | 72 | 129 | 1.0 | 6.0 | 0.00 | 0.00 | 0.00 | 65 | 1041.8 |
| 20260510155012 | 71 | 138 | 2.0 | 6.0 | 0.00 | 0.00 | 0.00 | 65 | 1041.7 |
| 20260510154729 | 71 | 252 | 2.0 | 6.0 | 0.00 | 0.00 | 0.00 | 65 | 1041.7 |
| 20260510154000 | 71 | 244 | 1.0 | 4.0 | 0.00 | 0.00 | 0.00 | 64 | 1041.7 |
| 20260510153454 | 71 | 243 | 1.0 | 4.0 | 0.00 | 0.00 | 0.00 | 66 | 1041.6 |
| 20260510152944 | 71 | 229 | 1.0 | 6.0 | 0.00 | 0.00 | 0.00 | 66 | 1041.6 |
| 20260510152442 | 71 | 166 | 2.0 | 6.0 | 0.00 | 0.00 | 0.00 | 66 | 1041.6 |
| 20260510151936 | 71 | 174 | 2.0 | 6.0 | 0.00 | 0.00 | 0.00 | 65 | 1041.6 |
| 20260510151430 | 71 | 261 | 2.0 | 7.0 | 0.00 | 0.00 | 0.00 | 67 | 1041.6 |
| 20260510150920 | 71 | 269 | 2.0 | 7.0 | 0.00 | 0.00 | 0.00 | 65 | 1041.6 |
| 20260510150418 | 71 | 232 | 1.0 | 5.0 | 0.00 | 0.00 | 0.00 | 66 | 1041.4 |
| 20260510150129 | 71 | 159 | 1.0 | 4.0 | 0.00 | 0.00 | 0.00 | 67 | 1041.4 |
| 20260510145404 | 70 | 248 | 1.0 | 3.0 | 0.00 | 0.00 | 0.00 | 68 | 1041.4 |
| 20260510144900 | 70 | 232 | 1.0 | 4.0 | 0.00 | 0.00 | 0.00 | 69 | 1041.5 |
| 20260510144622 | 70 | 225 | 1.0 | 4.0 | 0.00 | 0.00 | 0.00 | 66 | 1041.5 |
| 20260510143848 | 70 | 209 | 1.0 | 7.0 | 0.00 | 0.00 | 0.00 | 67 | 1041.5 |
| 20260510143344 | 70 | 194 | 2.0 | 7.0 | 0.00 | 0.00 | 0.00 | 68 | 1041.4 |
| 20260510142836 | 70 | 228 | 2.0 | 8.0 | 0.00 | 0.00 | 0.00 | 67 | 1041.4 |
| 20260510142557 | 70 | 288 | 2.0 | 8.0 | 0.00 | 0.00 | 0.00 | 67 | 1041.4 |
| 20260510142043 | 70 | 244 | 1.0 | 7.0 | 0.00 | 0.00 | 0.00 | 67 | 1041.3 |
| 20260510141319 | 70 | 244 | 2.0 | 6.0 | 0.00 | 0.00 | 0.00 | 68 | 1041.3 |
| 20260510140812 | 71 | 253 | 1.0 | 6.0 | 0.00 | 0.00 | 0.00 | 66 | 1041.3 |
| 20260510140527 | 71 | 216 | 0.0 | 2.0 | 0.00 | 0.00 | 0.00 | 71 | 1041.2 |
| 20260510135801 | 71 | 164 | 0.0 | 2.0 | 0.00 | 0.00 | 0.00 | 71 | 1041.2 |
| 20260510135254 | 70 | 207 | 0.0 | 2.0 | 0.00 | 0.00 | 0.00 | 73 | 1041.2 |
| 20260510135006 | 69 | 69 | 1.0 | 3.0 | 0.00 | 0.00 | 0.00 | 75 | 1041.3 |
| 20260510134459 | 69 | 213 | 1.0 | 3.0 | 0.00 | 0.00 | 0.00 | 73 | 1041.3 |
| 20260510133735 | 68 | 197 | 0.0 | 2.0 | 0.00 | 0.00 | 0.00 | 74 | 1041.3 |
| 20260510133229 | 67 | 107 | 0.0 | 0.0 | 0.00 | 0.00 | 0.00 | 76 | 1041.3 |
| 20260510132945 | 67 | 119 | 0.0 | 0.0 | 0.00 | 0.00 | 0.00 | 76 | 1041.3 |
| 20260510132218 | 66 | 115 | 0.0 | 1.0 | 0.00 | 0.00 | 0.00 | 77 | 1041.3 |
| 20260510131712 | 65 | 246 | 0.0 | 1.0 | 0.00 | 0.00 | 0.00 | 77 | 1041.4 |
| 20260510131206 | 64 | 243 | 0.0 | 2.0 | 0.00 | 0.00 | 0.00 | 80 | 1041.4 |
| 20260510130656 | 63 | 254 | 1.0 | 2.0 | 0.00 | 0.00 | 0.00 | 78 | 1041.4 |
| 20260510130154 | 63 | 241 | 1.0 | 2.0 | 0.00 | 0.00 | 0.00 | 80 | 1041.3 |
| 20260510125648 | 62 | 208 | 0.0 | 2.0 | 0.00 | 0.00 | 0.00 | 83 | 1041.3 |
| 20260510125142 | 61 | 78 | 0.0 | 0.0 | 0.00 | 0.00 | 0.00 | 87 | 1041.3 |
| 20260510124858 | 59 | 329 | 0.0 | 0.0 | 0.00 | 0.00 | 0.00 | 91 | 1040.9 |
| 20260510124357 | 58 | 265 | 0.0 | 1.0 | 0.00 | 0.00 | 0.00 | 93 | 1040.9 |
| 20260510123621 | 58 | 131 | 0.0 | 2.0 | 0.00 | 0.00 | 0.00 | 97 | 1040.9 |
| 20260510123122 | 57 | 145 | 0.0 | 1.0 | 0.00 | 0.00 | 0.00 | 99 | 1040.8 |
| 20260510122845 | 57 | 142 | 0.0 | 0.0 | 0.00 | 0.00 | 0.00 | 99 | 1040.8 |
| 20260510122122 | 56 | 141 | 0.0 | 0.0 | 0.00 | 0.00 | 0.00 | 99 | 1040.8 |
| 20260510121621 | 55 | 141 | 0.0 | 0.0 | 0.00 | 0.00 | 0.00 | 99 | 1040.8 |
| 20260510121344 | 55 | 141 | 0.0 | 1.0 | 0.00 | 0.00 | 0.00 | 99 | 1040.8 |
| 20260510120622 | 54 | 141 | 0.0 | 1.0 | 0.00 | 0.00 | 0.00 | 99 | 1040.8 |
| 20260510120122 | 53 | 141 | 0.0 | 0.0 | 0.00 | 0.00 | 0.00 | 99 | 1041.1 |
| 20260510115622 | 51 | 141 | 0.0 | 0.0 | 0.00 | 0.00 | 0.00 | 99 | 1041.1 |
| 20260510115115 | 50 | 141 | 0.0 | 0.0 | 0.00 | 0.00 | 0.00 | 99 | 1041.0 |
| 20260510114606 | 49 | 141 | 0.0 | 0.0 | 0.00 | 0.00 | 0.00 | 99 | 1041.0 |
| 20260510114334 | 48 | 141 | 0.0 | 0.0 | 0.00 | 0.00 | 0.00 | 99 | 1041.0 |
| 20260510113605 | 48 | 141 | 0.0 | 0.0 | 0.00 | 0.00 | 0.00 | 99 | 1040.8 |
| 20260510113106 | 47 | 141 | 0.0 | 0.0 | 0.00 | 0.00 | 0.00 | 99 | 1040.8 |
| 20260510112605 | 47 | 141 | 0.0 | 0.0 | 0.00 | 0.00 | 0.00 | 99 | 1040.8 |
| 20260510112105 | 47 | 141 | 0.0 | 0.0 | 0.00 | 0.00 | 0.00 | 99 | 1040.7 |
| 20260510111605 | 46 | 141 | 0.0 | 0.0 | 0.00 | 0.00 | 0.00 | 99 | 1040.7 |
| 20260510111106 | 46 | 141 | 0.0 | 1.0 | 0.00 | 0.00 | 0.00 | 99 | 1040.7 |
| 20260510110606 | 45 | 141 | 0.0 | 1.0 | 0.00 | 0.00 | 0.00 | 99 | 1040.3 |
| 20260510110059 | 45 | 141 | 0.0 | 0.0 | 0.00 | 0.00 | 0.00 | 99 | 1040.3 |
| 20260510105549 | 44 | 141 | 0.0 | 0.0 | 0.00 | 0.00 | 0.00 | 99 | 1040.3 |
| 20260510105521 | 44 | 141 | 0.0 | 0.0 | 0.00 | 0.00 | 0.00 | 99 | 1040.3 |
| 20260510104527 | 44 | 141 | 0.0 | 0.0 | 0.00 | 0.00 | 0.00 | 99 | 1040.3 |
| 20260510104239 | 44 | 141 | 0.0 | 0.0 | 0.00 | 0.00 | 0.00 | 99 | 1040.3 |
| 20260510103516 | 44 | 141 | 0.0 | 0.0 | 0.00 | 0.00 | 0.00 | 99 | 1040.1 |
| 20260510103236 | 44 | 141 | 0.0 | 0.0 | 0.00 | 0.00 | 0.00 | 99 | 1040.1 |
| 20260510102504 | 44 | 141 | 0.0 | 0.0 | 0.00 | 0.00 | 0.00 | 99 | 1040.1 |
| 20260510101958 | 44 | 141 | 0.0 | 0.0 | 0.00 | 0.00 | 0.00 | 99 | 1039.7 |
| 20260510101451 | 44 | 141 | 0.0 | 0.0 | 0.00 | 0.00 | 0.00 | 99 | 1039.7 |
| 20260510100945 | 44 | 141 | 0.0 | 0.0 | 0.00 | 0.00 | 0.00 | 99 | 1039.7 |
| 20260510100434 | 44 | 141 | 0.0 | 0.0 | 0.00 | 0.00 | 0.00 | 98 | 1039.3 |
| 20260510095934 | 44 | 141 | 0.0 | 0.0 | 0.00 | 0.00 | 0.00 | 98 | 1039.3 |
| 20260510095428 | 44 | 141 | 0.0 | 0.0 | 0.00 | 0.00 | 0.00 | 98 | 1039.3 |
| 20260510094922 | 44 | 141 | 0.0 | 0.0 | 0.00 | 0.00 | 0.00 | 99 | 1039.2 |
| 20260510094415 | 44 | 141 | 0.0 | 0.0 | 0.00 | 0.00 | 0.00 | 98 | 1039.2 |
| 20260510093909 | 44 | 141 | 0.0 | 0.0 | 0.00 | 0.00 | 0.00 | 98 | 1039.2 |
| 20260510093404 | 44 | 141 | 0.0 | 0.0 | 0.00 | 0.00 | 0.00 | 98 | 1039.1 |
| 20260510092853 | 44 | 141 | 0.0 | 0.0 | 0.00 | 0.00 | 0.00 | 98 | 1039.1 |
| 20260510092351 | 44 | 141 | 0.0 | 0.0 | 0.00 | 0.00 | 0.00 | 98 | 1039.1 |
| 20260510091845 | 44 | 141 | 0.0 | 0.0 | 0.00 | 0.00 | 0.00 | 98 | 1039.2 |
| 20260510091339 | 44 | 141 | 0.0 | 0.0 | 0.00 | 0.00 | 0.00 | 98 | 1039.2 |
| 20260510090834 | 44 | 141 | 0.0 | 0.0 | 0.00 | 0.00 | 0.00 | 98 | 1039.2 |
| 20260510090328 | 45 | 142 | 0.0 | 0.0 | 0.00 | 0.00 | 0.00 | 98 | 1039.1 |
| 20260510085822 | 45 | 141 | 0.0 | 0.0 | 0.00 | 0.00 | 0.00 | 98 | 1039.1 |
| 20260510085310 | 45 | 141 | 0.0 | 0.0 | 0.00 | 0.00 | 0.00 | 98 | 1039.1 |
| 20260510084811 | 45 | 141 | 0.0 | 0.0 | 0.00 | 0.00 | 0.00 | 98 | 1039.1 |
| 20260510084303 | 45 | 141 | 0.0 | 0.0 | 0.00 | 0.00 | 0.00 | 98 | 1039.1 |
| 20260510083759 | 46 | 141 | 0.0 | 0.0 | 0.00 | 0.00 | 0.00 | 98 | 1039.1 |
| 20260510083251 | 45 | 141 | 0.0 | 0.0 | 0.00 | 0.00 | 0.00 | 99 | 1039.1 |
| 20260510082747 | 45 | 141 | 0.0 | 0.0 | 0.00 | 0.00 | 0.00 | 99 | 1039.1 |
| 20260510082240 | 45 | 141 | 0.0 | 0.0 | 0.00 | 0.00 | 0.00 | 99 | 1039.1 |
| 20260510081728 | 45 | 142 | 0.0 | 0.0 | 0.00 | 0.00 | 0.00 | 98 | 1039.1 |
| 20260510081448 | 45 | 141 | 0.0 | 0.0 | 0.00 | 0.00 | 0.00 | 98 | 1039.1 |
| 20260510080721 | 45 | 141 | 0.0 | 0.0 | 0.00 | 0.00 | 0.00 | 98 | 1039.1 |
| 20260510080439 | 45 | 142 | 0.0 | 0.0 | 0.00 | 0.00 | 0.00 | 98 | 1039.1 |
| 20260510075709 | 45 | 141 | 0.0 | 0.0 | 0.00 | 0.00 | 0.00 | 98 | 1039.1 |
| 20260510075204 | 45 | 141 | 0.0 | 0.0 | 0.00 | 0.00 | 0.00 | 98 | 1039.1 |
| 20260510074657 | 45 | 141 | 0.0 | 0.0 | 0.00 | 0.00 | 0.00 | 98 | 1039.1 |
| 20260510074146 | 45 | 141 | 0.0 | 0.0 | 0.00 | 0.00 | 0.00 | 98 | 1039.1 |
| 20260510073645 | 45 | 142 | 0.0 | 0.0 | 0.00 | 0.00 | 0.00 | 98 | 1039.1 |
| 20260510073403 | 44 | 141 | 0.0 | 0.0 | 0.00 | 0.00 | 0.00 | 98 | 1039.0 |
| 20260510072633 | 44 | 141 | 0.0 | 0.0 | 0.00 | 0.00 | 0.00 | 98 | 1039.0 |
| 20260510072127 | 44 | 141 | 0.0 | 0.0 | 0.00 | 0.00 | 0.00 | 98 | 1038.6 |
| 20260510071842 | 44 | 142 | 0.0 | 0.0 | 0.00 | 0.00 | 0.00 | 98 | 1038.6 |
| 20260510071338 | 44 | 141 | 0.0 | 0.0 | 0.00 | 0.00 | 0.00 | 98 | 1038.6 |
| 20260510070605 | 44 | 141 | 0.0 | 0.0 | 0.00 | 0.00 | 0.00 | 98 | 1038.6 |
| 20260510070103 | 44 | 141 | 0.0 | 0.0 | 0.00 | 0.00 | 0.00 | 98 | 1038.6 |
| 20260510065820 | 44 | 141 | 0.0 | 0.0 | 0.00 | 0.00 | 0.00 | 97 | 1038.6 |
| 20260510065051 | 44 | 141 | 0.0 | 0.0 | 0.00 | 0.00 | 0.00 | 97 | 1038.5 |
| 20260510064545 | 45 | 141 | 0.0 | 0.0 | 0.00 | 0.00 | 0.00 | 97 | 1038.5 |
| 20260510064039 | 45 | 141 | 0.0 | 0.0 | 0.00 | 0.00 | 0.00 | 97 | 1038.5 |
| 20260510063532 | 45 | 141 | 0.0 | 0.0 | 0.00 | 0.00 | 0.00 | 98 | 1038.6 |
| 20260510063024 | 45 | 141 | 0.0 | 0.0 | 0.00 | 0.00 | 0.00 | 98 | 1038.6 |
| 20260510062520 | 45 | 141 | 0.0 | 0.0 | 0.00 | 0.00 | 0.00 | 98 | 1038.6 |
| 20260510062016 | 45 | 142 | 0.0 | 0.0 | 0.00 | 0.00 | 0.00 | 97 | 1038.6 |
| 20260510061509 | 46 | 141 | 0.0 | 0.0 | 0.00 | 0.00 | 0.00 | 97 | 1038.6 |
| 20260510061227 | 46 | 142 | 0.0 | 0.0 | 0.00 | 0.00 | 0.00 | 97 | 1038.6 |
| 20260510060456 | 46 | 141 | 0.0 | 0.0 | 0.00 | 0.00 | 0.00 | 97 | 1038.6 |
| 20260510055951 | 46 | 141 | 0.0 | 0.0 | 0.00 | 0.00 | 0.00 | 98 | 1038.6 |
| 20260510055440 | 46 | 141 | 0.0 | 0.0 | 0.00 | 0.00 | 0.00 | 97 | 1038.6 |
| 20260510054939 | 46 | 141 | 0.0 | 0.0 | 0.00 | 0.00 | 0.00 | 97 | 1038.8 |
| 20260510054433 | 46 | 141 | 0.0 | 0.0 | 0.00 | 0.00 | 0.00 | 97 | 1038.8 |
| 20260510053927 | 46 | 141 | 0.0 | 0.0 | 0.00 | 0.00 | 0.00 | 97 | 1038.8 |
| 20260510053421 | 47 | 141 | 0.0 | 0.0 | 0.00 | 0.00 | 0.00 | 97 | 1038.7 |
| 20260510052914 | 47 | 141 | 0.0 | 0.0 | 0.00 | 0.00 | 0.00 | 97 | 1038.7 |
| 20260510052410 | 47 | 141 | 0.0 | 0.0 | 0.00 | 0.00 | 0.00 | 97 | 1038.7 |
| 20260510052125 | 47 | 141 | 0.0 | 2.0 | 0.00 | 0.00 | 0.00 | 97 | 1038.7 |
| 20260510051357 | 47 | 142 | 1.0 | 3.0 | 0.00 | 0.00 | 0.00 | 97 | 1038.7 |
| 20260510050852 | 47 | 182 | 1.0 | 3.0 | 0.00 | 0.00 | 0.00 | 97 | 1038.7 |
| 20260510050345 | 47 | 192 | 0.0 | 1.0 | 0.00 | 0.00 | 0.00 | 97 | 1038.6 |
| 20260510050105 | 47 | 192 | 0.0 | 1.0 | 0.00 | 0.00 | 0.00 | 97 | 1038.6 |
| 20260510045345 | 47 | 192 | 0.0 | 0.0 | 0.00 | 0.00 | 0.00 | 97 | 1038.6 |
| 20260510045107 | 47 | 192 | 0.0 | 0.0 | 0.00 | 0.00 | 0.00 | 97 | 1038.5 |
| 20260510044604 | 47 | 192 | 0.0 | 1.0 | 0.00 | 0.00 | 0.00 | 97 | 1038.5 |
| 20260510043841 | 47 | 192 | 0.0 | 1.0 | 0.00 | 0.00 | 0.00 | 97 | 1038.5 |
| 20260510043339 | 47 | 192 | 0.0 | 0.0 | 0.00 | 0.00 | 0.00 | 97 | 1038.5 |
| 20260510042837 | 48 | 192 | 0.0 | 0.0 | 0.00 | 0.00 | 0.00 | 97 | 1038.5 |
| 20260510042335 | 48 | 192 | 0.0 | 0.0 | 0.00 | 0.00 | 0.00 | 97 | 1038.5 |
| 20260510041836 | 48 | 192 | 0.0 | 0.0 | 0.00 | 0.00 | 0.00 | 97 | 1038.5 |
| 20260510041553 | 48 | 192 | 0.0 | 0.0 | 0.00 | 0.00 | 0.00 | 96 | 1038.5 |
| 20260510040830 | 48 | 192 | 0.0 | 0.0 | 0.00 | 0.00 | 0.00 | 97 | 1038.5 |
| 20260510040330 | 48 | 192 | 0.0 | 0.0 | 0.00 | 0.00 | 0.00 | 96 | 1038.5 |
| 20260510035829 | 48 | 192 | 0.0 | 0.0 | 0.00 | 0.00 | 0.00 | 96 | 1038.5 |
| 20260510035327 | 48 | 192 | 0.0 | 0.0 | 0.00 | 0.00 | 0.00 | 96 | 1038.5 |
| 20260510034825 | 48 | 192 | 0.0 | 0.0 | 0.00 | 0.00 | 0.00 | 96 | 1038.5 |
| 20260510034323 | 48 | 192 | 0.0 | 0.0 | 0.00 | 0.00 | 0.00 | 96 | 1038.5 |
| 20260510033823 | 48 | 192 | 0.0 | 0.0 | 0.00 | 0.00 | 0.00 | 96 | 1038.5 |
| 20260510033324 | 49 | 192 | 0.0 | 0.0 | 0.00 | 0.00 | 0.00 | 96 | 1038.4 |
| 20260510033049 | 49 | 192 | 0.0 | 0.0 | 0.00 | 0.00 | 0.00 | 96 | 1038.4 |
| 20260510032321 | 49 | 192 | 0.0 | 0.0 | 0.00 | 0.00 | 0.00 | 96 | 1038.4 |
| 20260510031819 | 49 | 192 | 0.0 | 0.0 | 0.00 | 0.00 | 0.00 | 96 | 1038.5 |
| 20260510031318 | 49 | 192 | 0.0 | 0.0 | 0.00 | 0.00 | 0.00 | 96 | 1038.5 |
| 20260510030818 | 49 | 192 | 0.0 | 0.0 | 0.00 | 0.00 | 0.00 | 96 | 1038.5 |
| 20260510030319 | 49 | 192 | 0.0 | 0.0 | 0.00 | 0.00 | 0.00 | 96 | 1038.5 |
| 20260510025819 | 49 | 192 | 0.0 | 0.0 | 0.00 | 0.00 | 0.00 | 96 | 1038.5 |
| 20260510025318 | 49 | 192 | 0.0 | 0.0 | 0.00 | 0.00 | 0.00 | 95 | 1038.5 |
| 20260510024822 | 49 | 192 | 0.0 | 0.0 | 0.00 | 0.00 | 0.00 | 95 | 1038.4 |
| 20260510024323 | 49 | 192 | 0.0 | 0.0 | 0.00 | 0.00 | 0.00 | 95 | 1038.4 |
| 20260510023816 | 49 | 192 | 0.0 | 0.0 | 0.00 | 0.00 | 0.00 | 95 | 1038.4 |
| 20260510023304 | 49 | 192 | 0.0 | 0.0 | 0.00 | 0.00 | 0.00 | 95 | 1038.2 |
| 20260510022803 | 49 | 192 | 0.0 | 0.0 | 0.00 | 0.00 | 0.00 | 94 | 1038.2 |
| 20260510022306 | 49 | 192 | 0.0 | 0.0 | 0.00 | 0.00 | 0.00 | 94 | 1038.2 |
| 20260510021802 | 50 | 192 | 0.0 | 0.0 | 0.00 | 0.00 | 0.00 | 94 | 1037.9 |
| 20260510021303 | 50 | 192 | 0.0 | 0.0 | 0.00 | 0.00 | 0.00 | 94 | 1037.9 |
| 20260510020803 | 50 | 192 | 0.0 | 0.0 | 0.00 | 0.00 | 0.00 | 94 | 1037.9 |
| 20260510020303 | 50 | 192 | 0.0 | 0.0 | 0.00 | 0.00 | 0.00 | 93 | 1037.7 |
| 20260510015802 | 50 | 192 | 0.0 | 0.0 | 0.00 | 0.00 | 0.00 | 93 | 1037.7 |
| 20260510015306 | 51 | 192 | 0.0 | 0.0 | 0.00 | 0.00 | 0.00 | 92 | 1037.7 |
| 20260510014756 | 51 | 192 | 0.0 | 0.0 | 0.00 | 0.00 | 0.00 | 92 | 1037.5 |
| 20260510014246 | 51 | 192 | 0.0 | 0.0 | 0.00 | 0.00 | 0.00 | 92 | 1037.5 |
| 20260510014000 | 52 | 192 | 0.0 | 0.0 | 0.00 | 0.00 | 0.00 | 91 | 1037.5 |
| 20260510013235 | 52 | 192 | 0.0 | 0.0 | 0.00 | 0.00 | 0.00 | 91 | 1037.4 |
| 20260510012728 | 53 | 192 | 0.0 | 0.0 | 0.00 | 0.00 | 0.00 | 91 | 1037.4 |
| 20260510012218 | 53 | 192 | 0.0 | 0.0 | 0.00 | 0.00 | 0.00 | 91 | 1037.4 |
| 20260510011941 | 53 | 192 | 0.0 | 0.0 | 0.00 | 0.00 | 0.00 | 90 | 1037.0 |
| 20260510011206 | 53 | 192 | 0.0 | 0.0 | 0.00 | 0.00 | 0.00 | 89 | 1037.0 |
| 20260510010704 | 54 | 192 | 0.0 | 0.0 | 0.00 | 0.00 | 0.00 | 89 | 1037.0 |
| 20260510010158 | 54 | 192 | 0.0 | 0.0 | 0.00 | 0.00 | 0.00 | 88 | 1036.9 |
| 20260510005652 | 55 | 192 | 0.0 | 0.0 | 0.00 | 0.00 | 0.00 | 87 | 1036.9 |
| 20260510005146 | 55 | 192 | 0.0 | 0.0 | 0.00 | 0.00 | 0.00 | 86 | 1036.9 |
| 20260510004641 | 56 | 192 | 0.0 | 0.0 | 0.00 | 0.00 | 0.00 | 85 | 1036.5 |
| 20260510004400 | 56 | 192 | 0.0 | 0.0 | 0.00 | 0.00 | 0.00 | 85 | 1036.5 |
| 20260510003623 | 57 | 192 | 0.0 | 0.0 | 0.00 | 0.00 | 0.00 | 83 | 1036.5 |
| 20260510003119 | 58 | 192 | 0.0 | 0.0 | 0.00 | 0.00 | 0.00 | 82 | 1036.5 |
| 20260510002841 | 58 | 192 | 0.0 | 0.0 | 0.00 | 0.00 | 0.00 | 81 | 1036.5 |
| 20260510002111 | 59 | 192 | 0.0 | 0.0 | 0.00 | 0.00 | 0.00 | 79 | 1036.5 |
| 20260510001604 | 60 | 192 | 0.0 | 0.0 | 0.00 | 0.00 | 0.00 | 79 | 1036.5 |
| 20260510001059 | 60 | 192 | 0.0 | 0.0 | 0.00 | 0.00 | 0.00 | 79 | 1036.5 |
| 20260510000552 | 61 | 192 | 0.0 | 0.0 | 0.00 | 0.00 | 0.00 | 78 | 1036.5 |
| 20260510000042 | 62 | 192 | 0.0 | 0.0 | 0.00 | 0.00 | 0.00 | 77 | 1036.5 |
| 20260509235540 | 63 | 192 | 0.0 | 0.0 | 0.00 | 0.00 | 0.00 | 75 | 1036.5 |
| 20260509235034 | 64 | 192 | 0.0 | 0.0 | 0.00 | 0.00 | 0.00 | 73 | 1036.4 |
| 20260509234748 | 64 | 192 | 0.0 | 0.0 | 0.00 | 0.00 | 0.00 | 72 | 1036.4 |
| 20260509234018 | 65 | 192 | 0.0 | 0.0 | 0.00 | 0.00 | 0.00 | 72 | 1036.4 |
| 20260509233516 | 66 | 192 | 0.0 | 0.0 | 0.00 | 0.00 | 0.00 | 70 | 1036.5 |
| 20260509233010 | 67 | 192 | 0.0 | 0.0 | 0.00 | 0.00 | 0.00 | 68 | 1036.5 |
| 20260509232725 | 68 | 192 | 0.0 | 0.0 | 0.00 | 0.00 | 0.00 | 65 | 1036.5 |
| 20260509231958 | 69 | 192 | 0.0 | 0.0 | 0.00 | 0.00 | 0.00 | 63 | 1036.5 |
| 20260509231452 | 69 | 192 | 0.0 | 0.0 | 0.00 | 0.00 | 0.00 | 62 | 1036.5 |
| 20260509230946 | 70 | 192 | 0.0 | 0.0 | 0.00 | 0.00 | 0.00 | 61 | 1036.5 |
| 20260509230440 | 71 | 192 | 0.0 | 0.0 | 0.00 | 0.00 | 0.00 | 59 | 1036.5 |
| 20260509230420 | 71 | 192 | 0.0 | 2.0 | 0.00 | 0.00 | 0.00 | 57 | 1036.5 |
| 20260509225649 | 72 | 192 | 0.0 | 2.0 | 0.00 | 0.00 | 0.00 | 57 | 1036.5 |
| 20260509224917 | 73 | 190 | 0.0 | 1.0 | 0.00 | 0.00 | 0.00 | 56 | 1036.5 |
| 20260509224416 | 73 | 164 | 0.0 | 0.0 | 0.00 | 0.00 | 0.00 | 57 | 1036.5 |
| 20260509223910 | 74 | 164 | 1.0 | 2.0 | 0.00 | 0.00 | 0.00 | 55 | 1036.5 |
| 20260509223404 | 73 | 164 | 1.0 | 2.0 | 0.00 | 0.00 | 0.00 | 54 | 1036.5 |
| 20260509222858 | 74 | 93 | 0.0 | 2.0 | 0.00 | 0.00 | 0.00 | 54 | 1036.5 |
| 20260509222610 | 74 | 126 | 0.0 | 2.0 | 0.00 | 0.00 | 0.00 | 56 | 1036.5 |
| 20260509221846 | 74 | 128 | 0.0 | 2.0 | 0.00 | 0.00 | 0.00 | 55 | 1036.5 |
| 20260509221335 | 73 | 116 | 1.0 | 4.0 | 0.00 | 0.00 | 0.00 | 56 | 1036.5 |
| 20260509220834 | 73 | 136 | 2.0 | 4.0 | 0.00 | 0.00 | 0.00 | 58 | 1036.5 |
| 20260509220328 | 73 | 143 | 1.0 | 4.0 | 0.00 | 0.00 | 0.00 | 56 | 1036.5 |
| 20260509215817 | 73 | 169 | 0.0 | 3.0 | 0.00 | 0.00 | 0.00 | 56 | 1036.5 |
| 20260509215534 | 73 | 11 | 0.0 | 3.0 | 0.00 | 0.00 | 0.00 | 58 | 1036.5 |
| 20260509214811 | 72 | 76 | 0.0 | 3.0 | 0.00 | 0.00 | 0.00 | 58 | 1036.4 |
| 20260509214304 | 71 | 135 | 0.0 | 3.0 | 0.00 | 0.00 | 0.00 | 58 | 1036.4 |
| 20260509213754 | 71 | 273 | 0.0 | 2.0 | 0.00 | 0.00 | 0.00 | 59 | 1036.4 |
| 20260509213252 | 71 | 69 | 0.0 | 2.0 | 0.00 | 0.00 | 0.00 | 60 | 1036.4 |
| 20260509213009 | 72 | 59 | 0.0 | 2.0 | 0.00 | 0.00 | 0.00 | 58 | 1036.4 |
| 20260509212240 | 72 | 175 | 1.0 | 3.0 | 0.00 | 0.00 | 0.00 | 57 | 1036.4 |
| 20260509211734 | 73 | 148 | 1.0 | 3.0 | 0.00 | 0.00 | 0.00 | 57 | 1036.3 |